カタログに戻る

ANGOSAT 2

運用中通信GEO
NORAD 54033·PAYLOAD·🇦🇴 Angola

打ち上げ Oct 12, 2022 から Baikonur Cosmodrome

Loading…

TLE

最新Source: Space-Track

元期: Sep 14, 2026, 19:02 UTC

1 54033U 22131A   26257.79356102  .00000000  00000-0  00000-0 0  9999
2 54033   0.0205 165.7008 0000694 100.1877  36.5636  1.00272199 14379

AllMySatでANGOSAT 2をリアルタイム追跡

Download on the App Store